Columbus, NE

11:16 AM CDT on September 30, 2016 (GMT -0500)
Columbus Municipal

Weather History for KOLU - May, 2013

Change the Weather History Date:

Monday, May 20, 2013

  Actual Average Record
Temperature  
Mean Temperature 63 °F -  
Max Temperature 71 °F 75 °F 94 °F (1970)
Min Temperature 55 °F 53 °F 33 °F (2002)
Degree Days  
Heating Degree Days 2    
Growing Degree Days 13 (Base 50)    
Moisture  
Dew Point 51 °F    
Average Humidity 67    
Maximum Humidity 88    
Minimum Humidity 43    
Precipitation  
Precipitation 0.97 in - - ()
Sea Level Pressure  
Sea Level Pressure 29.61 in    
Wind  
Wind Speed 10 mph (WSW)    
Max Wind Speed 21 mph    
Max Gust Speed 30 mph    
Visibility 10 miles    
Events      
Averages and records for this station are not official NWS values.
T = Trace of Precipitation, MM = Missing Value Source: NWS Daily Summary

Daily Weather History Graph

Daily Weather History Graph

Search for Another Location

Airport or City:

Trip Planner

Search our weather history database for the weather conditions in past years. The results will help you decide how hot, cold, wet, or windy it might be!

Date:

Astronomy

May. 20, 2013 Rise Set
Actual Time 6:05 AM CDT 8:46 PM CDT
Civil Twilight 5:33 AM CDT 9:18 PM CDT
Nautical Twilight 4:53 AM CDT 9:59 PM CDT
Astronomical Twilight 4:07 AM CDT 10:45 PM CDT
Moon 3:52 PM CDT (5/20) 3:04 AM CDT (5/20)
Length of Visible Light 15h 45m
Length of Day
14h 41m
Waxing Gibbous, 75% of the Moon is Illuminated
May 20
Waxing Gibbous
May 24
Full
May 31
Last Quarter
Jun 8
New
Jun 16
First Quarter

Hourly Weather History & Observations

Time (CDT) Temp. Dew Point Humidity Pressure Visibility Wind Dir Wind Speed Gust Speed Precip Events Conditions
12:15 AM 57.2 °F 53.6 °F 88% 29.55 in 10.0 mi SSE 5.8 mph - N/A   Overcast
12:35 AM 57.2 °F 51.8 °F 82% 29.55 in 10.0 mi South 5.8 mph - N/A   Mostly Cloudy
12:55 AM 57.2 °F 53.6 °F 88% 29.55 in 10.0 mi South 5.8 mph - N/A   Scattered Clouds
1:15 AM 57.2 °F 53.6 °F 88% 29.55 in 10.0 mi SSW 9.2 mph - N/A   Clear
1:35 AM 59.0 °F 53.6 °F 82% 29.55 in 10.0 mi SSW 8.1 mph - N/A   Clear
1:55 AM 59.0 °F 53.6 °F 82% 29.55 in 10.0 mi SW 9.2 mph - N/A   Clear
2:15 AM 57.2 °F 51.8 °F 82% 29.54 in 10.0 mi SW 6.9 mph - N/A   Clear
2:35 AM 57.2 °F 51.8 °F 82% 29.54 in 10.0 mi SW 5.8 mph - N/A   Clear
3:15 AM 57.2 °F 51.8 °F 82% 29.54 in 10.0 mi SW 5.8 mph - N/A   Clear
3:35 AM 55.4 °F 50.0 °F 82% 29.54 in 10.0 mi WSW 5.8 mph - N/A   Scattered Clouds
3:55 AM 55.4 °F 51.8 °F 88% 29.54 in 10.0 mi West 5.8 mph - N/A   Mostly Cloudy
4:15 AM 57.2 °F 51.8 °F 82% 29.55 in 10.0 mi WNW 10.4 mph - N/A   Overcast
4:35 AM 57.2 °F 51.8 °F 82% 29.55 in 10.0 mi NW 16.1 mph 21.9 mph N/A   Mostly Cloudy
4:55 AM 57.2 °F 51.8 °F 82% 29.56 in 10.0 mi NW 13.8 mph 19.6 mph N/A   Overcast
5:15 AM 57.2 °F 50.0 °F 77% 29.57 in 10.0 mi NW 12.7 mph - N/A   Overcast
5:35 AM 57.2 °F 50.0 °F 77% 29.58 in 10.0 mi WNW 9.2 mph - N/A   Overcast
5:55 AM 55.4 °F 50.0 °F 82% 29.60 in 10.0 mi West 5.8 mph - N/A   Overcast
6:15 AM 57.2 °F 51.8 °F 82% 29.62 in 10.0 mi SW 6.9 mph - N/A   Overcast
6:35 AM 57.2 °F 51.8 °F 82% 29.63 in 10.0 mi WSW 6.9 mph - N/A   Scattered Clouds
6:55 AM 57.2 °F 51.8 °F 82% 29.64 in 10.0 mi SW 8.1 mph - N/A   Partly Cloudy
7:15 AM 57.2 °F 51.8 °F 82% 29.64 in 10.0 mi SW 10.4 mph - N/A   Partly Cloudy
7:35 AM 57.2 °F 51.8 °F 82% 29.65 in 10.0 mi SW 10.4 mph - N/A   Partly Cloudy
7:55 AM 59.0 °F 53.6 °F 82% 29.65 in 10.0 mi SW 9.2 mph - N/A   Clear
8:15 AM 60.8 °F 53.6 °F 77% 29.66 in 10.0 mi WSW 10.4 mph - N/A   Clear
8:35 AM 60.8 °F 51.8 °F 72% 29.66 in 10.0 mi WSW 12.7 mph - N/A   Clear
9:15 AM 62.6 °F 53.6 °F 72% 29.66 in 10.0 mi WSW 13.8 mph 18.4 mph N/A   Clear
9:35 AM 62.6 °F 51.8 °F 68% 29.65 in 10.0 mi West 13.8 mph 18.4 mph N/A   Clear
9:55 AM 64.4 °F 51.8 °F 64% 29.65 in 10.0 mi West 11.5 mph - N/A   Clear
10:35 AM 66.2 °F 51.8 °F 60% 29.66 in 10.0 mi WSW 16.1 mph 20.7 mph N/A   Partly Cloudy
10:55 AM 66.2 °F 53.6 °F 64% 29.66 in 10.0 mi SW 12.7 mph 16.1 mph N/A   Scattered Clouds
11:15 AM 66.2 °F 53.6 °F 64% 29.66 in 10.0 mi SW 12.7 mph 17.3 mph N/A   Scattered Clouds
11:35 AM 69.8 °F 53.6 °F 56% 29.65 in 10.0 mi West 11.5 mph 18.4 mph N/A   Scattered Clouds
11:55 AM 68.0 °F 51.8 °F 56% 29.65 in 10.0 mi SW 13.8 mph - N/A   Mostly Cloudy
12:15 PM 66.2 °F 51.8 °F 60% 29.65 in 10.0 mi SW 12.7 mph 19.6 mph N/A   Overcast
12:35 PM 69.8 °F 53.6 °F 56% 29.65 in 10.0 mi SW 15.0 mph 23.0 mph N/A   Overcast
12:55 PM 68.0 °F 53.6 °F 60% 29.65 in 10.0 mi SW 17.3 mph 21.9 mph N/A   Overcast
1:15 PM 68.0 °F 53.6 °F 60% 29.64 in 10.0 mi SSW 17.3 mph 20.7 mph N/A   Overcast
1:55 PM 69.8 °F 55.4 °F 60% 29.63 in 10.0 mi WSW 17.3 mph 25.3 mph N/A   Mostly Cloudy
2:15 PM 71.6 °F 53.6 °F 53% 29.63 in 10.0 mi WSW 18.4 mph 26.5 mph N/A   Mostly Cloudy
2:35 PM 69.8 °F 51.8 °F 53% 29.63 in 10.0 mi SW 20.7 mph 28.8 mph N/A   Mostly Cloudy
2:55 PM 71.6 °F 51.8 °F 50% 29.62 in 10.0 mi WSW 19.6 mph 26.5 mph N/A   Mostly Cloudy
3:15 PM 71.6 °F 51.8 °F 50% 29.62 in 10.0 mi SW 18.4 mph 27.6 mph N/A   Overcast
3:35 PM 69.8 °F 50.0 °F 49% 29.62 in 10.0 mi SW 18.4 mph 27.6 mph N/A   Overcast
3:55 PM 69.8 °F 50.0 °F 49% 29.62 in 10.0 mi SW 15.0 mph 23.0 mph N/A   Overcast
4:15 PM 71.6 °F 50.0 °F 46% 29.61 in 10.0 mi SW 12.7 mph - N/A   Overcast
4:35 PM 71.6 °F 50.0 °F 46% 29.61 in 10.0 mi SW 17.3 mph 25.3 mph N/A   Overcast
4:55 PM 71.6 °F 50.0 °F 46% 29.61 in 10.0 mi SW 18.4 mph 26.5 mph N/A   Overcast
5:15 PM 71.6 °F 48.2 °F 43% 29.60 in 10.0 mi SW 16.1 mph 25.3 mph N/A   Overcast
5:35 PM 71.6 °F 48.2 °F 43% 29.60 in 10.0 mi SW 17.3 mph 26.5 mph N/A   Overcast
5:55 PM 69.8 °F 48.2 °F 46% 29.59 in 10.0 mi SW 16.1 mph 26.5 mph N/A   Overcast
6:15 PM 71.6 °F 48.2 °F 43% 29.58 in 10.0 mi SW 11.5 mph 21.9 mph N/A   Overcast
6:35 PM 71.6 °F 48.2 °F 43% 29.57 in 10.0 mi WSW 19.6 mph 24.2 mph N/A   Mostly Cloudy
6:55 PM 69.8 °F 48.2 °F 46% 29.57 in 10.0 mi WSW 20.7 mph 29.9 mph N/A   Clear
7:15 PM 69.8 °F 46.4 °F 43% 29.58 in 10.0 mi West 12.7 mph 25.3 mph N/A   Clear
7:35 PM 66.2 °F 46.4 °F 49% 29.59 in 10.0 mi WSW 10.4 mph - N/A   Scattered Clouds
7:55 PM 66.2 °F 48.2 °F 52% 29.59 in 10.0 mi WSW 10.4 mph - N/A   Clear
8:15 PM 64.4 °F 46.4 °F 52% 29.59 in 10.0 mi WSW 10.4 mph - N/A   Clear
8:35 PM 64.4 °F 46.4 °F 52% 29.60 in 10.0 mi WSW 11.5 mph - N/A   Clear
9:15 PM 62.6 °F 48.2 °F 59% 29.61 in 10.0 mi West 9.2 mph 18.4 mph N/A   Mostly Cloudy
9:35 PM 60.8 °F 51.8 °F 72% 29.61 in 10.0 mi West 11.5 mph - N/A   Overcast
9:55 PM 60.8 °F 51.8 °F 72% 29.62 in 10.0 mi West 9.2 mph 16.1 mph N/A   Overcast
10:15 PM 60.8 °F 51.8 °F 72% 29.63 in 7.0 mi West 11.5 mph - N/A   Overcast
10:35 PM 59.0 °F 53.6 °F 82% 29.64 in 8.0 mi West 11.5 mph - N/A   Overcast
10:55 PM 59.0 °F 51.8 °F 77% 29.64 in 10.0 mi West 11.5 mph - N/A   Mostly Cloudy
11:15 PM 59.0 °F 51.8 °F 77% 29.65 in 10.0 mi WNW 12.7 mph - N/A   Mostly Cloudy
11:35 PM 57.2 °F 51.8 °F 82% 29.66 in 10.0 mi West 12.7 mph - N/A   Overcast
11:55 PM 57.2 °F 51.8 °F 82% 29.66 in 10.0 mi West 11.5 mph - N/A   Overcast